Buoy 52514

sailwx.info

Track history (hours):
 
Tides and Currents Weather Stations Pressure Air Temp Water Temp Dewpoint Dewpoint Depression Visibility Wind Speed Wind Dir Waves Ship Positions

Drifting buoy 52514

Last reported at 2014-Oct-26 07:00 UTC. Time now 2014-Oct-26 07:43 UTC.
Position N 24°56' E 131°44'.

Water temperature 27.0 ° C

Date/timePositionNaut miles runAvg speedWind from/ knotsBaromVisibWave heightAir tempDewpointWater temp
2014-Oct-26 07:00N 24°56' E 131°44'0 0.0 27.0
2014-Oct-26 06:00N 24°56' E 131°44'0 0.4 27.1
2014-Oct-26 05:00N 24°56' E 131°44'0 0.4 26.9
2014-Oct-26 04:00N 24°55' E 131°44'0 0.1 26.9
2014-Oct-26 01:00N 24°55' E 131°44'1 0.2 26.7
2014-Oct-25 21:00N 24°55' E 131°43'0 0.4 26.6
2014-Oct-25 20:00N 24°55' E 131°43'1 0.7 26.6
2014-Oct-25 19:00N 24°55' E 131°42'1 0.3 26.6
2014-Oct-25 16:00N 24°54' E 131°42'3 1.0 26.7
2014-Oct-25 13:00N 24°51' E 131°41'1 0.8 26.7
2014-Oct-25 12:00N 24°51' E 131°42'0 0.0 26.7
2014-Oct-25 11:00N 24°51' E 131°42'1 0.6 26.7
2014-Oct-25 09:00N 24°50' E 131°41'0 0.4 26.8
2014-Oct-25 08:00N 24°50' E 131°41'1 0.6 26.8
2014-Oct-25 06:00N 24°49' E 131°41'1 1.3 26.9
2014-Oct-25 05:00N 24°48' E 131°42'0 0.4 26.9
2014-Oct-25 04:00N 24°48' E 131°42'2 1.1 26.9
2014-Oct-25 02:00N 24°47' E 131°44'0 0.1 26.8
2014-Oct-25 01:00N 24°47' E 131°44'0 0.0 26.7
2014-Oct-25 00:00N 24°47' E 131°44'1 0.4 26.7
2014-Oct-24 22:00N 24°46' E 131°43'0 0.0 26.6
2014-Oct-24 21:00N 24°46' E 131°43'1 0.6 26.7
2014-Oct-24 19:00N 24°46' E 131°42'0 0.1 26.7
2014-Oct-24 18:00N 24°46' E 131°42'1 1.4 26.7
2014-Oct-24 17:00N 24°45' E 131°41'3 0.5 26.7
2014-Oct-24 12:00N 24°43' E 131°40'1 0.8 26.8
2014-Oct-24 11:00N 24°42' E 131°41'1 0.3 26.8
2014-Oct-24 09:00N 24°42' E 131°41'0 0.4 26.9
2014-Oct-24 08:00N 24°42' E 131°41'1 0.6 26.9
2014-Oct-24 06:00N 24°40' E 131°41'2 0.9 26.9
2014-Oct-24 04:00N 24°42' E 131°42'2 0.5 26.9
2014-Oct-24 00:00N 24°40' E 131°43'1 0.4 26.8
2014-Oct-23 20:00N 24°39' E 131°42'1 0.9 26.7
2014-Oct-23 19:00N 24°38' E 131°41'0 0.0 26.7
2014-Oct-23 18:00N 24°38' E 131°41'0 0.1 26.7
2014-Oct-23 17:00N 24°39' E 131°41'2 0.3 26.7
2014-Oct-23 12:00N 24°38' E 131°42'0 0.0 26.8
2014-Oct-23 11:00N 24°38' E 131°42'0 0.0 26.9
2014-Oct-23 10:00N 24°38' E 131°42'3 1.3 27.0
2014-Oct-23 08:00N 24°35' E 131°43'1 0.4 27.0
2014-Oct-23 04:00N 24°34' E 131°43'1 0.6 27.0
2014-Oct-23 02:00N 24°33' E 131°44'0 0.0 27.0
2014-Oct-23 01:00N 24°33' E 131°44'1 1.0 26.9
2014-Oct-23 00:00N 24°33' E 131°43'0 0.0 26.9
2014-Oct-22 23:00N 24°33' E 131°43'0 0.0 26.8
2014-Oct-22 22:00N 24°33' E 131°43'0 0.5 26.8
2014-Oct-22 21:00N 24°33' E 131°43'0 0.0 26.8
2014-Oct-22 20:00N 24°33' E 131°43'0 0.4 26.8
2014-Oct-22 19:00N 24°33' E 131°43'1 0.5 26.9
2014-Oct-22 16:00N 24°31' E 131°42'3 0.7 26.9
2014-Oct-22 11:00N 24°29' E 131°40'0 0.2 27.1
2014-Oct-22 09:00N 24°29' E 131°39'1 0.8 27.2
2014-Oct-22 08:00N 24°28' E 131°39'0 0.3 27.7
2014-Oct-22 07:00N 24°28' E 131°39'0 0.0 28.0
2014-Oct-22 06:00N 24°28' E 131°39'3 1.5 27.9
2014-Oct-22 04:00N 24°25' E 131°40'0 0.1 27.5
2014-Oct-22 02:00N 24°25' E 131°40'0 0.0 27.0
2014-Oct-22 01:00N 24°25' E 131°40'0 0.4 26.8
2014-Oct-22 00:00N 24°25' E 131°40'0 0.0 26.7
2014-Oct-21 23:00N 24°25' E 131°40'2 0.5 26.6
2014-Oct-21 20:00N 24°25' E 131°38'0 0.2 26.7
2014-Oct-21 19:00N 24°25' E 131°38'5 2.4 26.7
2014-Oct-21 17:00N 24°22' E 131°34'0 0.0 26.7
2014-Oct-21 16:00N 24°22' E 131°34'0 0.0 26.7
2014-Oct-21 13:00N 24°22' E 131°34'1 0.9 26.7
2014-Oct-21 12:00N 24°22' E 131°33'1 0.6 26.7
2014-Oct-21 11:00N 24°22' E 131°32'1 0.5 26.9
2014-Oct-21 09:00N 24°21' E 131°33'1 0.6 27.0
2014-Oct-21 08:00N 24°20' E 131°32'2 0.8 27.1
2014-Oct-21 05:00N 24°19' E 131°34'3 0.7 27.5
2014-Oct-21 01:00N 24°17' E 131°32'1 1.1 26.7
2014-Oct-21 00:00N 24°18' E 131°31'1 0.5 26.6
2014-Oct-20 23:00N 24°18' E 131°31'0 0.0 26.5
2014-Oct-20 22:00N 24°18' E 131°31'0 0.2 26.5
2014-Oct-20 20:00N 24°18' E 131°30'1 0.5 26.6
2014-Oct-20 19:00N 24°18' E 131°30'2 1.0 26.7
2014-Oct-20 17:00N 24°18' E 131°28'0 0.0 26.7
2014-Oct-20 16:00N 24°18' E 131°28'6 1.4 26.7
2014-Oct-20 12:00N 24°15' E 131°22'1 0.8 26.4
2014-Oct-20 11:00N 24°15' E 131°21'1 1.1 26.4
2014-Oct-20 10:00N 24°15' E 131°20'0 0.0 26.4
2014-Oct-20 09:00N 24°15' E 131°20'1 0.7 26.4
2014-Oct-20 08:00N 24°14' E 131°20'1 1.4 26.5
2014-Oct-20 07:00N 24°13' E 131°21'0 0.1 26.5
2014-Oct-20 05:00N 24°13' E 131°21'1 0.3 26.5
2014-Oct-20 02:00N 24°12' E 131°21'0 0.1 26.4
2014-Oct-20 01:00N 24°12' E 131°21'0 0.0 26.3
2014-Oct-20 00:00N 24°12' E 131°21'2 0.3 26.3
2014-Oct-19 17:00N 24°13' E 131°19'4 4.0 26.2
2014-Oct-19 16:00N 24°12' E 131°15'1 0.2 26.3
2014-Oct-19 13:00N 24°12' E 131°14'0 0.0 26.2
2014-Oct-19 12:00N 24°12' E 131°14'3 3.4 26.2
2014-Oct-19 11:00N 24°09' E 131°11'0 0.0 26.2
2014-Oct-19 10:00N 24°09' E 131°11'2 1.1 26.3
2014-Oct-19 08:00N 24°08' E 131°09'0 0.1 26.3
2014-Oct-19 07:00N 24°08' E 131°09'3 1.3 26.3
2014-Oct-19 05:00N 24°05' E 131°09'0 0.0 26.3
2014-Oct-19 03:00N 24°05' E 131°09'1 0.6 26.3
2014-Oct-19 01:00N 24°04' E 131°08'2 1.5 26.2
2014-Oct-19 00:00N 24°03' E 131°07'0 0.0 26.2
2014-Oct-18 23:00N 24°03' E 131°07'0 0.0 26.2
2014-Oct-18 22:00N 24°03' E 131°07'0 0.0 26.2
2014-Oct-18 21:00N 24°03' E 131°07'1 0.6 26.2
2014-Oct-18 20:00N 24°03' E 131°06'1 1.1 26.2
2014-Oct-18 19:00N 24°03' E 131°05'0 0.0 26.2
2014-Oct-18 18:00N 24°03' E 131°05'1 0.8 26.3
2014-Oct-18 17:00N 24°02' E 131°05'3 2.7 26.3
2014-Oct-18 16:00N 24°02' E 131°02'3 2.7 26.3
2014-Oct-18 15:00N 24°02' E 131°05'3 1.4 26.3
2014-Oct-18 13:00N 24°02' E 131°02'1 1.5 26.3
2014-Oct-18 12:00N 24°02' E 131°00'0 0.0 26.3
2014-Oct-18 11:00N 24°02' E 131°00'2 2.3 26.3
2014-Oct-18 10:00N 24°02' E 130°58'1 1.0 26.4
2014-Oct-18 09:00N 24°02' E 130°57'2 2.0 26.4
2014-Oct-18 08:00N 24°01' E 130°55'3 2.8 26.4
2014-Oct-18 07:00N 23°59' E 130°53'0 0.2 26.4
2014-Oct-18 05:00N 23°59' E 130°53'7 2.5 25.4
2014-Oct-18 02:00N 23°53' E 130°48'0 0.0 26.2
2014-Oct-18 01:00N 23°53' E 130°48'0 0.4 26.2
2014-Oct-18 00:00N 23°53' E 130°48'0 0.0 26.2
2014-Oct-17 21:00N 23°53' E 130°48'1 0.7 26.1
2014-Oct-17 19:00N 23°52' E 130°47'3 2.7 26.2
2014-Oct-17 18:00N 23°55' E 130°46'0 0.0 26.2
2014-Oct-17 16:00N 23°55' E 130°46'4 0.8 26.2
2014-Oct-17 11:00N 23°56' E 130°42'3 1.1 26.0
2014-Oct-17 08:00N 23°56' E 130°38'1 1.1 26.1
2014-Oct-17 07:00N 23°56' E 130°37'2 2.1 26.1
2014-Oct-17 06:00N 23°55' E 130°35'2 1.6 26.1
2014-Oct-17 05:00N 23°55' E 130°34'4 0.9 26.1
2014-Oct-17 01:00N 23°52' E 130°30'0 0.0 26.3
2014-Oct-17 00:00N 23°52' E 130°30'3 1.4 26.1
2014-Oct-16 22:00N 23°50' E 130°29'2 1.0 26.5
2014-Oct-16 20:00N 23°48' E 130°29'0 0.0 26.5
2014-Oct-16 19:00N 23°48' E 130°29'1 0.7 26.5
2014-Oct-16 18:00N 23°48' E 130°28'1 0.9 26.5
2014-Oct-16 17:00N 23°48' E 130°29'2 0.5 26.5
2014-Oct-16 12:00N 23°50' E 130°29'3 1.7 26.6
2014-Oct-16 10:00N 23°53' E 130°26'0 0.0 26.6
2014-Oct-16 09:00N 23°53' E 130°26'4 3.6 26.6
2014-Oct-16 08:00N 23°53' E 130°22'   26.7
Track history (hours):
 
Tides and Currents Weather Stations Pressure Air Temp Water Temp Dewpoint Dewpoint Depression Visibility Wind Speed Wind Dir Waves Ship Positions

Drifting buoy 52514

Last reported at 2014-Oct-26 07:00 UTC. Time now 2014-Oct-26 07:43 UTC.
Position N 24°56' E 131°44'.

Water temperature 27.0 ° C

Date/timePositionNaut miles runAvg speedWind from/ knotsBaromVisibWave heightAir tempDewpointWater temp
2014-Oct-26 07:00N 24°56' E 131°44'0 0.0 27.0
2014-Oct-26 06:00N 24°56' E 131°44'0 0.4 27.1
2014-Oct-26 05:00N 24°56' E 131°44'0 0.4 26.9
2014-Oct-26 04:00N 24°55' E 131°44'0 0.1 26.9
2014-Oct-26 01:00N 24°55' E 131°44'1 0.2 26.7
2014-Oct-25 21:00N 24°55' E 131°43'0 0.4 26.6
2014-Oct-25 20:00N 24°55' E 131°43'1 0.7 26.6
2014-Oct-25 19:00N 24°55' E 131°42'1 0.3 26.6
2014-Oct-25 16:00N 24°54' E 131°42'3 1.0 26.7
2014-Oct-25 13:00N 24°51' E 131°41'1 0.8 26.7
2014-Oct-25 12:00N 24°51' E 131°42'0 0.0 26.7
2014-Oct-25 11:00N 24°51' E 131°42'1 0.6 26.7
2014-Oct-25 09:00N 24°50' E 131°41'0 0.4 26.8
2014-Oct-25 08:00N 24°50' E 131°41'1 0.6 26.8
2014-Oct-25 06:00N 24°49' E 131°41'1 1.3 26.9
2014-Oct-25 05:00N 24°48' E 131°42'0 0.4 26.9
2014-Oct-25 04:00N 24°48' E 131°42'2 1.1 26.9
2014-Oct-25 02:00N 24°47' E 131°44'0 0.1 26.8
2014-Oct-25 01:00N 24°47' E 131°44'0 0.0 26.7
2014-Oct-25 00:00N 24°47' E 131°44'1 0.4 26.7
2014-Oct-24 22:00N 24°46' E 131°43'0 0.0 26.6
2014-Oct-24 21:00N 24°46' E 131°43'1 0.6 26.7
2014-Oct-24 19:00N 24°46' E 131°42'0 0.1 26.7
2014-Oct-24 18:00N 24°46' E 131°42'1 1.4 26.7
2014-Oct-24 17:00N 24°45' E 131°41'3 0.5 26.7
2014-Oct-24 12:00N 24°43' E 131°40'1 0.8 26.8
2014-Oct-24 11:00N 24°42' E 131°41'1 0.3 26.8
2014-Oct-24 09:00N 24°42' E 131°41'0 0.4 26.9
2014-Oct-24 08:00N 24°42' E 131°41'1 0.6 26.9
2014-Oct-24 06:00N 24°40' E 131°41'2 0.9 26.9
2014-Oct-24 04:00N 24°42' E 131°42'2 0.5 26.9
2014-Oct-24 00:00N 24°40' E 131°43'1 0.4 26.8
2014-Oct-23 20:00N 24°39' E 131°42'1 0.9 26.7
2014-Oct-23 19:00N 24°38' E 131°41'0 0.0 26.7
2014-Oct-23 18:00N 24°38' E 131°41'0 0.1 26.7
2014-Oct-23 17:00N 24°39' E 131°41'2 0.3 26.7
2014-Oct-23 12:00N 24°38' E 131°42'0 0.0 26.8
2014-Oct-23 11:00N 24°38' E 131°42'0 0.0 26.9
2014-Oct-23 10:00N 24°38' E 131°42'3 1.3 27.0
2014-Oct-23 08:00N 24°35' E 131°43'1 0.4 27.0
2014-Oct-23 04:00N 24°34' E 131°43'1 0.6 27.0
2014-Oct-23 02:00N 24°33' E 131°44'0 0.0 27.0
2014-Oct-23 01:00N 24°33' E 131°44'1 1.0 26.9
2014-Oct-23 00:00N 24°33' E 131°43'0 0.0 26.9
2014-Oct-22 23:00N 24°33' E 131°43'0 0.0 26.8
2014-Oct-22 22:00N 24°33' E 131°43'0 0.5 26.8
2014-Oct-22 21:00N 24°33' E 131°43'0 0.0 26.8
2014-Oct-22 20:00N 24°33' E 131°43'0 0.4 26.8
2014-Oct-22 19:00N 24°33' E 131°43'1 0.5 26.9
2014-Oct-22 16:00N 24°31' E 131°42'3 0.7 26.9
2014-Oct-22 11:00N 24°29' E 131°40'0 0.2 27.1
2014-Oct-22 09:00N 24°29' E 131°39'1 0.8 27.2
2014-Oct-22 08:00N 24°28' E 131°39'0 0.3 27.7
2014-Oct-22 07:00N 24°28' E 131°39'0 0.0 28.0
2014-Oct-22 06:00N 24°28' E 131°39'3 1.5 27.9
2014-Oct-22 04:00N 24°25' E 131°40'0 0.1 27.5
2014-Oct-22 02:00N 24°25' E 131°40'0 0.0 27.0
2014-Oct-22 01:00N 24°25' E 131°40'0 0.4 26.8
2014-Oct-22 00:00N 24°25' E 131°40'0 0.0 26.7
2014-Oct-21 23:00N 24°25' E 131°40'2 0.5 26.6
2014-Oct-21 20:00N 24°25' E 131°38'0 0.2 26.7
2014-Oct-21 19:00N 24°25' E 131°38'5 2.4 26.7
2014-Oct-21 17:00N 24°22' E 131°34'0 0.0 26.7
2014-Oct-21 16:00N 24°22' E 131°34'0 0.0 26.7
2014-Oct-21 13:00N 24°22' E 131°34'1 0.9 26.7
2014-Oct-21 12:00N 24°22' E 131°33'1 0.6 26.7
2014-Oct-21 11:00N 24°22' E 131°32'1 0.5 26.9
2014-Oct-21 09:00N 24°21' E 131°33'1 0.6 27.0
2014-Oct-21 08:00N 24°20' E 131°32'2 0.8 27.1
2014-Oct-21 05:00N 24°19' E 131°34'3 0.7 27.5
2014-Oct-21 01:00N 24°17' E 131°32'1 1.1 26.7
2014-Oct-21 00:00N 24°18' E 131°31'1 0.5 26.6
2014-Oct-20 23:00N 24°18' E 131°31'0 0.0 26.5
2014-Oct-20 22:00N 24°18' E 131°31'0 0.2 26.5
2014-Oct-20 20:00N 24°18' E 131°30'1 0.5 26.6
2014-Oct-20 19:00N 24°18' E 131°30'2 1.0 26.7
2014-Oct-20 17:00N 24°18' E 131°28'0 0.0 26.7
2014-Oct-20 16:00N 24°18' E 131°28'6 1.4 26.7
2014-Oct-20 12:00N 24°15' E 131°22'1 0.8 26.4
2014-Oct-20 11:00N 24°15' E 131°21'1 1.1 26.4
2014-Oct-20 10:00N 24°15' E 131°20'0 0.0 26.4
2014-Oct-20 09:00N 24°15' E 131°20'1 0.7 26.4
2014-Oct-20 08:00N 24°14' E 131°20'1 1.4 26.5
2014-Oct-20 07:00N 24°13' E 131°21'0 0.1 26.5
2014-Oct-20 05:00N 24°13' E 131°21'1 0.3 26.5
2014-Oct-20 02:00N 24°12' E 131°21'0 0.1 26.4
2014-Oct-20 01:00N 24°12' E 131°21'0 0.0 26.3
2014-Oct-20 00:00N 24°12' E 131°21'2 0.3 26.3
2014-Oct-19 17:00N 24°13' E 131°19'4 4.0 26.2
2014-Oct-19 16:00N 24°12' E 131°15'1 0.2 26.3
2014-Oct-19 13:00N 24°12' E 131°14'0 0.0 26.2
2014-Oct-19 12:00N 24°12' E 131°14'3 3.4 26.2
2014-Oct-19 11:00N 24°09' E 131°11'0 0.0 26.2
2014-Oct-19 10:00N 24°09' E 131°11'2 1.1 26.3
2014-Oct-19 08:00N 24°08' E 131°09'0 0.1 26.3
2014-Oct-19 07:00N 24°08' E 131°09'3 1.3 26.3
2014-Oct-19 05:00N 24°05' E 131°09'0 0.0 26.3
2014-Oct-19 03:00N 24°05' E 131°09'1 0.6 26.3
2014-Oct-19 01:00N 24°04' E 131°08'2 1.5 26.2
2014-Oct-19 00:00N 24°03' E 131°07'0 0.0 26.2
2014-Oct-18 23:00N 24°03' E 131°07'0 0.0 26.2
2014-Oct-18 22:00N 24°03' E 131°07'0 0.0 26.2
2014-Oct-18 21:00N 24°03' E 131°07'1 0.6 26.2
2014-Oct-18 20:00N 24°03' E 131°06'1 1.1 26.2
2014-Oct-18 19:00N 24°03' E 131°05'0 0.0 26.2
2014-Oct-18 18:00N 24°03' E 131°05'1 0.8 26.3
2014-Oct-18 17:00N 24°02' E 131°05'3 2.7 26.3
2014-Oct-18 16:00N 24°02' E 131°02'3 2.7 26.3
2014-Oct-18 15:00N 24°02' E 131°05'3 1.4 26.3
2014-Oct-18 13:00N 24°02' E 131°02'1 1.5 26.3
2014-Oct-18 12:00N 24°02' E 131°00'0 0.0 26.3
2014-Oct-18 11:00N 24°02' E 131°00'2 2.3 26.3
2014-Oct-18 10:00N 24°02' E 130°58'1 1.0 26.4
2014-Oct-18 09:00N 24°02' E 130°57'2 2.0 26.4
2014-Oct-18 08:00N 24°01' E 130°55'3 2.8 26.4
2014-Oct-18 07:00N 23°59' E 130°53'0 0.2 26.4
2014-Oct-18 05:00N 23°59' E 130°53'7 2.5 25.4
2014-Oct-18 02:00N 23°53' E 130°48'0 0.0 26.2
2014-Oct-18 01:00N 23°53' E 130°48'0 0.4 26.2
2014-Oct-18 00:00N 23°53' E 130°48'0 0.0 26.2
2014-Oct-17 21:00N 23°53' E 130°48'1 0.7 26.1
2014-Oct-17 19:00N 23°52' E 130°47'3 2.7 26.2
2014-Oct-17 18:00N 23°55' E 130°46'0 0.0 26.2
2014-Oct-17 16:00N 23°55' E 130°46'4 0.8 26.2
2014-Oct-17 11:00N 23°56' E 130°42'3 1.1 26.0
2014-Oct-17 08:00N 23°56' E 130°38'1 1.1 26.1
2014-Oct-17 07:00N 23°56' E 130°37'2 2.1 26.1
2014-Oct-17 06:00N 23°55' E 130°35'2 1.6 26.1
2014-Oct-17 05:00N 23°55' E 130°34'4 0.9 26.1
2014-Oct-17 01:00N 23°52' E 130°30'0 0.0 26.3
2014-Oct-17 00:00N 23°52' E 130°30'3 1.4 26.1
2014-Oct-16 22:00N 23°50' E 130°29'2 1.0 26.5
2014-Oct-16 20:00N 23°48' E 130°29'0 0.0 26.5
2014-Oct-16 19:00N 23°48' E 130°29'1 0.7 26.5
2014-Oct-16 18:00N 23°48' E 130°28'1 0.9 26.5
2014-Oct-16 17:00N 23°48' E 130°29'2 0.5 26.5
2014-Oct-16 12:00N 23°50' E 130°29'3 1.7 26.6
2014-Oct-16 10:00N 23°53' E 130°26'0 0.0 26.6
2014-Oct-16 09:00N 23°53' E 130°26'4 3.6 26.6
2014-Oct-16 08:00N 23°53' E 130°22'   26.7

Dump ship's entire track history